Weather History for Carmi, IL

Change the Weather History Date:

Thursday, January 17, 2013

  Actual Average (KEVV) Record (KEVV)
Temperature  
Mean Temperature 36 °F 32 °F  
Max Temperature 44 °F 41 °F 69 °F (1952)
Min Temperature 28 °F 24 °F -21 °F (1977)
Degree Days  
Heating Degree Days 29 33  
Month to date heating degree days 556  
Since 1 July heating degree days 2328  
Cooling Degree Days 0 0  
Month to date cooling degree days 0  
Year to date cooling degree days 0  
Moisture  
Dew Point 30 °F    
Average Humidity 82    
Maximum Humidity 96    
Minimum Humidity 66    
Precipitation  
Precipitation 0.00 in 0.10 in 2.46 in (1969)
Month to date precipitation 1.66  
Year to date precipitation 1.66  
Snow  
Snow 0.00 in 0.10 in 2.70 in (1994)
Month to date snowfall 1.8  
Since 1 July snowfall 5.3  
Snow Depth -    
Sea Level Pressure  
Sea Level Pressure 30.27 in    
Wind  
Wind Speed 5 mph (NW)    
Max Wind Speed 22 mph    
Max Gust Speed 28 mph    
Visibility 8 miles    
Events      
T = Trace of Precipitation, MM = Missing Value Source: NWS Daily Summary

Daily Weather History Graph

Daily Weather History Graph

Search for Another Location

Airport:

Trip Planner

Search our weather history database for the weather conditions in past years. The results will help you decide how hot, cold, wet, or windy it might be!

Date:

Astronomy

Jan. 17, 2013 Rise Set
Actual Time 7:06 AM CST 4:59 PM CST
Civil Twilight 6:37 AM CST 5:27 PM CST
Nautical Twilight 6:05 AM CST 6:00 PM CST
Astronomical Twilight 5:34 AM CST 6:31 PM CST
Moon 10:20 AM CST (1/17) 11:42 PM CST (1/17)
Length of Visible Light 10h 49m
Length of Day
9h 52m
Waxing Crescent, 38% of the Moon is Illuminated
Jan 17
Waxing Crescent
Jan 18
First Quarter
Jan 26
Full
Feb 3
Last Quarter
Feb 10
New

Hourly Weather History & Observations

Time (CST) Temp. Windchill Dew Point Humidity Pressure Visibility Wind Dir Wind Speed Gust Speed Precip Events Conditions
12:15 AM 31.6 °F - 28.4 °F 88% 30.13 in 10.0 mi Calm Calm - N/A   Clear
12:35 AM 31.3 °F 27.9 °F 28.4 °F 89% 30.14 in 10.0 mi SSW 3.5 mph - N/A   Clear
12:55 AM 31.6 °F - 28.4 °F 88% 30.14 in 10.0 mi Calm Calm - N/A   Scattered Clouds
1:15 AM 31.8 °F 28.5 °F 28.4 °F 87% 30.15 in 10.0 mi SSW 3.5 mph - N/A   Mostly Cloudy
1:35 AM 32.0 °F - 29.3 °F 90% 30.15 in 7.0 mi Calm Calm - N/A   Mostly Cloudy
1:55 AM 32.0 °F - 28.4 °F 87% 30.15 in 10.0 mi Calm Calm - N/A   Overcast
2:15 AM 32.0 °F - 28.4 °F 87% 30.15 in 10.0 mi Calm Calm - N/A   Overcast
2:35 AM 32.0 °F 28.7 °F 28.6 °F 87% 30.15 in 10.0 mi SW 3.5 mph - N/A   Mostly Cloudy
2:55 AM 31.6 °F - 28.4 °F 88% 30.15 in 10.0 mi Calm Calm - N/A   Scattered Clouds
3:15 AM 31.5 °F - 28.0 °F 87% 30.15 in 10.0 mi Calm Calm - N/A   Clear
3:35 AM 31.8 °F - 28.0 °F 86% 30.15 in 10.0 mi Calm Calm - N/A   Scattered Clouds
3:55 AM 32.0 °F - 29.5 °F 90% 30.16 in 7.0 mi Calm Calm - N/A   Scattered Clouds
4:15 AM 31.5 °F - 29.8 °F 94% 30.16 in 7.0 mi Calm Calm - N/A   Scattered Clouds
4:35 AM 31.1 °F - 29.7 °F 94% 30.16 in 7.0 mi Calm Calm - N/A   Clear
4:55 AM 30.0 °F - 28.9 °F 96% 30.17 in 5.0 mi Calm Calm - N/A   Clear
5:15 AM 29.7 °F - 28.4 °F 95% 30.17 in 7.0 mi Calm Calm - N/A   Clear
5:35 AM 29.3 °F 25.6 °F 28.2 °F 96% 30.17 in 7.0 mi North 3.5 mph - N/A   Clear
5:55 AM 29.5 °F 22.5 °F 28.6 °F 96% 30.15 in 5.0 mi North 6.9 mph - N/A   Clear
6:15 AM 28.4 °F 19.1 °F 26.8 °F 94% 30.15 in 7.0 mi NNW 10.4 mph - N/A   Clear
6:35 AM 30.2 °F 23.4 °F 27.5 °F 90% 30.16 in 7.0 mi NNW 6.9 mph - N/A   Clear
6:55 AM 30.2 °F - 27.3 °F 89% 30.18 in 10.0 mi Calm Calm - N/A   Clear
7:15 AM 30.6 °F - 27.5 °F 88% 30.19 in 10.0 mi Calm Calm - N/A   Clear
7:35 AM 28.4 °F - 27.0 °F 94% 30.20 in 5.0 mi Calm Calm - N/A   Clear
7:55 AM 29.5 °F - 27.9 °F 94% 30.22 in 7.0 mi Calm Calm - N/A   Clear
8:15 AM 31.5 °F - 29.7 °F 93% 30.23 in 7.0 mi Calm Calm - N/A   Clear
8:35 AM 32.4 °F 26.0 °F 30.4 °F 92% 30.23 in 7.0 mi NNW 6.9 mph - N/A   Clear
8:55 AM 35.6 °F 29.2 °F 30.4 °F 81% 30.24 in 7.0 mi NNW 8.1 mph - N/A   Clear
9:15 AM 37.4 °F 30.8 °F 30.7 °F 77% 30.24 in 7.0 mi North 9.2 mph - N/A   Clear
9:35 AM 38.7 °F 32.9 °F 31.8 °F 76% 30.25 in 7.0 mi North 8.1 mph - N/A   Clear
9:55 AM 38.8 °F 33.8 °F 31.6 °F 75% 30.25 in 7.0 mi NNW 6.9 mph - N/A   Mostly Cloudy
10:15 AM 39.7 °F 34.9 °F 32.0 °F 74% 30.25 in 7.0 mi North 6.9 mph - N/A   Scattered Clouds
10:35 AM 41.2 °F 35.5 °F 33.3 °F 73% 30.26 in 7.0 mi NNW 9.2 mph - N/A   Clear
10:55 AM 42.1 °F 37.7 °F 33.3 °F 71% 30.25 in 7.0 mi North 6.9 mph - N/A   Clear
11:15 AM 43.0 °F 37.2 °F 34.2 °F 71% 30.24 in 7.0 mi NNW 10.4 mph - N/A   Clear
11:35 AM 43.7 °F 38.1 °F 34.3 °F 70% 30.23 in 7.0 mi NNW 10.4 mph - N/A   Clear
11:55 AM 43.9 °F 37.2 °F 34.9 °F 71% 30.23 in 7.0 mi NNW 13.8 mph - N/A   Clear
12:15 PM 43.9 °F 37.5 °F 35.4 °F 72% 30.23 in 7.0 mi NNW 12.7 mph - N/A   Clear
12:35 PM 44.6 °F 37.2 °F 36.1 °F 72% 30.22 in 7.0 mi NNW 17.3 mph 20.7 mph N/A   Clear
12:55 PM 43.7 °F 35.7 °F 36.0 °F 74% 30.22 in 7.0 mi NW 18.4 mph 21.9 mph N/A   Clear
1:15 PM 44.8 °F 36.4 °F 36.1 °F 72% 30.22 in 7.0 mi NNW 21.9 mph 26.5 mph N/A   Clear
1:35 PM 43.9 °F 35.4 °F 34.3 °F 69% 30.22 in 7.0 mi NNW 20.7 mph 27.6 mph N/A   Clear
1:55 PM 43.5 °F 35.0 °F 33.3 °F 67% 30.23 in 10.0 mi NNW 20.7 mph 26.5 mph N/A   Clear
2:15 PM 43.7 °F 35.4 °F 33.8 °F 68% 30.24 in 7.0 mi NNW 19.6 mph 26.5 mph N/A   Clear
2:35 PM 42.6 °F 33.5 °F 32.9 °F 68% 30.25 in 10.0 mi NW 21.9 mph 27.6 mph N/A   Scattered Clouds
2:55 PM 41.9 °F 33.4 °F 31.1 °F 66% 30.26 in 10.0 mi NNW 18.4 mph - N/A   Scattered Clouds
3:15 PM 41.2 °F 32.7 °F 31.1 °F 67% 30.27 in 10.0 mi NNW 17.3 mph 24.2 mph N/A   Clear
3:35 PM 40.5 °F 31.2 °F 31.3 °F 70% 30.29 in 10.0 mi NNW 19.6 mph 24.2 mph N/A   Clear
3:55 PM 40.1 °F 32.0 °F 30.9 °F 70% 30.30 in 10.0 mi NNW 15.0 mph 19.6 mph N/A   Clear
4:15 PM 39.7 °F 31.9 °F 30.7 °F 70% 30.30 in 7.0 mi NNW 13.8 mph - N/A   Clear
4:35 PM 39.2 °F 33.0 °F 30.6 °F 71% 30.32 in 10.0 mi NNW 9.2 mph - N/A   Clear
4:55 PM 37.8 °F 31.3 °F 30.2 °F 74% 30.34 in 7.0 mi NNW 9.2 mph - N/A   Clear
5:15 PM 36.5 °F 29.7 °F 30.4 °F 78% 30.35 in 10.0 mi NNW 9.2 mph - N/A   Clear
5:35 PM 36.5 °F 31.0 °F 29.8 °F 77% 30.36 in 10.0 mi NNW 6.9 mph - N/A   Clear
5:55 PM 34.7 °F 29.6 °F 29.7 °F 82% 30.37 in 10.0 mi NW 5.8 mph - N/A   Clear
6:15 PM 34.5 °F 28.6 °F 30.2 °F 84% 30.38 in 10.0 mi NW 6.9 mph - N/A   Clear
6:35 PM 34.5 °F 28.6 °F 29.8 °F 83% 30.40 in 10.0 mi NW 6.9 mph - N/A   Clear
6:55 PM 34.3 °F 27.7 °F 29.5 °F 82% 30.41 in 10.0 mi NW 8.1 mph - N/A   Clear
7:15 PM 33.8 °F 27.0 °F 29.1 °F 83% 30.42 in 10.0 mi NW 8.1 mph - N/A   Clear
7:35 PM 33.4 °F 26.6 °F 28.4 °F 82% 30.43 in 10.0 mi NW 8.1 mph - N/A   Clear
7:55 PM 32.9 °F 26.7 °F 28.0 °F 82% 30.44 in 10.0 mi NW 6.9 mph - N/A   Clear
8:15 PM 32.4 °F 27.9 °F 27.9 °F 83% 30.45 in 10.0 mi NW 4.6 mph - N/A   Clear
8:35 PM 31.8 °F 25.4 °F 27.3 °F 83% 30.45 in 10.0 mi NW 6.9 mph - N/A   Clear
8:55 PM 32.0 °F 26.4 °F 27.9 °F 85% 30.46 in 10.0 mi NW 5.8 mph - N/A   Clear
9:15 PM 32.0 °F 27.5 °F 27.9 °F 85% 30.46 in 10.0 mi WNW 4.6 mph - N/A   Clear
9:35 PM 30.2 °F 25.4 °F 27.3 °F 89% 30.47 in 10.0 mi NW 4.6 mph - N/A   Clear
9:55 PM 30.7 °F 26.0 °F 27.5 °F 88% 30.48 in 10.0 mi WNW 4.6 mph - N/A   Clear
11:15 PM 29.7 °F 22.0 °F 26.6 °F 88% 30.49 in 10.0 mi WNW 8.1 mph - N/A   Clear
11:35 PM 28.6 °F 24.8 °F 25.5 °F 88% 30.49 in 10.0 mi WNW 3.5 mph - N/A   Clear
11:55 PM 29.1 °F 24.1 °F 25.7 °F 87% 30.50 in 10.0 mi NW 4.6 mph - N/A   Clear